Torna al catalogo

CZ-2D DEB

AttivoSSO
NORAD 44609·DEBRIS·🇨🇳 China

Lanciato Oct 9, 2017 da Jiuquan Satellite Launch Center

Loading…

Prossimi Passaggi (prossime 24 ore)

TLE

AggiornatoSource: Space-Track

Epoca: Sep 13, 2026, 12:23 UTC

1 44609U 17060B   26256.51623632  .00003989  00000-0  31233-3 0  9990
2 44609  97.5361 272.2493 0026049  16.4629 343.7436 15.01310106478438

Traccia CZ-2D DEB in tempo reale con AllMySat

Download on the App Store